Other Public Products
Issued by NWS Grand Forks, ND

Home | Current Version | Previous Version | Text Only | Print | Product List | Glossary Off
Versions: 1 2 3 4 5 6 7 8 9 10 11 12 13 14 15 16 17 18 19 20 21 22 23 24 25 26 27 28 29 30 31 32 33 34 35 36 37 38 39 40 41 42 43 44 45 46 47 48 49 50

000
FPUS83 KFGF 071710
OPUFGF
PRAIRIE TO PINES WEATHER ROUNDUP
NATIONAL WEATHER SERVICE EASTERN NORTH DAKOTA/GRAND FORKS ND
1100 AM CST WED DEC 07 2016

 **SATELLITE DATA USED TO AUGMENT SKY COVER AT AUTOMATED STATIONS**
 *****  WEATHER ACROSS EASTERN NORTH DAKOTA  *****

CITY           SKY/WX    TMP DP  RH WIND       PRES   REMARKS
GRAND FORKS    LGT SNOW  16  11  80 NW26      29.96R BLWGSNOWWCI  -3
GRAND FORKS AF LGT SNOW  16  10  77 NW20G30   29.97R WCI  -1
GRAND CITY NWS NOT AVBL
BUXTON         NOT AVBL
DEVILS LAKE    SNOW       9   6  88 W31       30.03R VSB 1/2 WCI -14
FARGO          CLOUDY    14   6  70 W25G39    30.03R HAZE    WCI  -5
WAHPETON ARPT  CLOUDY    14   9  79 NW28G35   30.08R WCI  -6
$$

 *****  WEATHER ACROSS CENTRAL AND WESTERN NORTH DAKOTA  *****

CITY           SKY/WX    TMP DP  RH WIND       PRES   REMARKS
JAMESTOWN      SNOW       9   5  84 NW33G44   30.09R VSB 1/2 WCI -15
BISMARCK       CLOUDY     5  -1  76 W23G38    30.27R WCI -17
MINOT          BLWGSNOW   6   0  76 W36G48    30.19R VSB 3/4 WCI -19
MINOT AFB      HVY SNOW   3  -1  81 NW37G45   30.18R VSB 1/4 WCI -23
GARRISON         N/A      2  -3  80 NW35G45   30.22R WCI -25
WILLISTON      CLOUDY    -1  -9  68 NW16      30.42R WCI -21
DICKINSON      MIX PCPN  -1  -7  75 NW31G40   30.27R VSB 1   WCI -28
HETTINGER      MOSUNNY    2  -5  72 NW28G39   30.30R HAZE    WCI -22
$$

 *****  OTHER OBSERVATIONS NORTHEAST NORTH DAKOTA  *****

CITY           SKY/WX    TMP DP  RH WIND       PRES   REMARKS
WALHALLA       LGT SNOW  18  18 100 NW25G32   29.95R WCI  -1
LANGDON        SNOW      14  10  85 NW33G41   29.94R VSB 1/4 WCI  -8
CAVALIER       LGT SNOW  18  14  86 NW30G36   29.94R VSB 3/4 WCI  -2
GRAFTON        PTSUNNY   18  14  86 NW24G36   29.96R FOG     WCI   0
CANDO          LGT SNOW  12   9  85 NW23G30   30.07R WCI  -7
FORT TOTTEN      N/A     10   8  91 NW15      29.95S WCI  -7
ROLLA          SNOW       9   9 100 NW33G39   30.03R VSB 1/2 WCI -15
RUGBY          FOG        7   5  92 NW33G39   30.11R VSB 1   WCI -18
 ***** THE ABOVE OBSERVATIONS ARE NON NWS ARE NOT QUALITY
        CONTROLLED AND MAY MIS-REPORT RAIN FOR SNOW...
$$

 *****  OTHER OBSERVATIONS SOUTHEAST NORTH DAKOTA *****

CITY           SKY/WX    TMP DP  RH WIND       PRES   REMARKS
COOPERSTOWN    SNOW       9   5  85 NW32G39   30.02R VSB 1/2 WCI -15
VALLEY CITY    LGT SNOW   9   7  92 NW32G46   30.07R WCI -15
OAKES          NOT AVBL
GWINNER        CLOUDY    14   9  79 W25G33    30.11R WCI  -5
SHEYENNE NWR     N/A     13   3  65 NW21      29.95S WCI  -5
BUFFALO        NOT AVBL
WYNDMERE       NOT AVBL
 ***** THE ABOVE OBSERVATIONS ARE NON NWS ARE NOT QUALITY
       CONTROLLED AND MAY MIS-REPORT RAIN FOR SNOW...
$$

  *****  WEATHER ACROSS NORTHERN MINNESOTA  *****

CITY           SKY/WX    TMP DP  RH WIND       PRES   REMARKS
FLAG ISLAND    LGT SNOW  25  21  86 NW21      29.73R WCI  10
WARROAD        LGT SNOW  25  19  80 NW17G24   29.77R WCI  11
ROSEAU         CLOUDY    25  19  80 W15       29.78S WCI  12
HALLOCK        LGT SNOW  19  18  93 NW25G33   29.88R VSB 1   WCI   2
THF RVR FALLS  LGT SNOW  16  13  88 W17       29.89R FOG     WCI   0
HALSTAD          N/A     15  10  83 NW25        N/A  WCI  -5
FOSSTON        LGT SNOW  14  10  85 W22       29.90R WCI  -4
BAUDETTE       LGT SNOW  23  20  88 W16       29.72R FOG     WCI  10
WASKISH        CLOUDY    21  18  86 W21G28    29.77R WCI   6
CROOKSTON      FOG       16  12  86 NW23      29.94R VSB 1   WCI  -2
$$
  *****  WEATHER ACROSS CENTRAL AND WEST MINNESOTA  *****

CITY           SKY/WX    TMP DP  RH WIND       PRES   REMARKS
BEMIDJI        LGT SNOW  15  10  82 W21G26    29.84R WCI  -3
PARK RAPIDS    LGT SNOW  14   6  70 W20       29.88R WCI  -3
WADENA         LGT SNOW  12   7  79 W18G26    29.94R WCI  -5
DETROIT LAKES  LGT SNOW  14  10  85 W21G29    29.96R WCI  -4
MOORHEAD       MIX PCPN  12   9  85 W29       30.03R WCI  -9
FERGUS FALLS   LGT SNOW  12   9  85 NW26G33   30.09R VSB 1   WCI  -8
ELBOW LAKE     LGT SNOW  13   9  87 NW24G30   30.05R WCI  -7
MORRIS MN      LGT SNOW  16   9  73 W29G36    30.07R WCI  -4
STAPLES        CLOUDY    12   9  85 W20       29.94R WCI  -6
WHEATON        LGT SNOW  18  10  73 W24G33    30.12R WCI   0
$$
  *****  WEATHER ELSEWHERE ACROSS MINNESOTA  *****

CITY           SKY/WX    TMP DP  RH WIND       PRES   REMARKS
DULUTH         LGT SNOW  17  11  77 W23G29    29.76R BLWGSNOWWCI  -1
INTRNTL FALLS  SNOW      23  20  88 W12G17    29.68R VSB 1/2 WCI  12
ELY            FLURRIES  19  16  86 W16G22    29.66R WCI   5
CLOQUET        LGT SNOW  18   9  68 W18G30    29.80R WCI   2
BRAINERD       CLOUDY    15   7  70 W16G26    29.92R WCI  -1
HIBBING        LGT SNOW  17  13  84 W9G20     29.75R FOG     WCI   6
ALEXANDRIA     LGT SNOW  13   8  81 W22G32    30.01R WCI  -6
SAINT CLOUD    FLURRIES  16   8  71 W18G28    30.01R WCI   0
MINNEAPOLIS    FLURRIES  19   9  65 W16G26    30.04S WCI   4
$$

  *****  WEATHER ACROSS SOUTH DAKOTA  *****

CITY           SKY/WX    TMP DP  RH WIND       PRES   REMARKS
SIOUX FALLS    CLOUDY    15   6  67 NW21G33   30.22R WCI  -2
BROOKINGS      PTSUNNY   12   5  73 W23G33    30.16S WCI  -7
WATERTOWN      CLOUDY    10   4  76 W25G36    30.14R HAZE    WCI -11
HURON          CLOUDY    14   4  64 W25G32    30.27S WCI  -5
SISSETON         N/A     16   7  67 NW28G40   30.09R WCI  -4
ABERDEEN       CLOUDY    13   2  61 NW26G33   30.20R WCI  -7
MITCHELL       MOSUNNY   14   3  61 NW25G35   30.30R WCI  -5
PIERRE         CLOUDY    10   2  69 NW23G36   30.33R WCI -10
MOBRIDGE       MOSUNNY   10   0  63 NW29G41   30.24R WCI -12
RAPID CITY     CLOUDY     9  -2  61 NW28G33   30.33R WCI -13
$$

  *****  SOME WEATHER IN NEARBY STATES *****

CITY           SKY/WX    TMP DP  RH WIND       PRES   REMARKS
GLASGOW MT     CLOUDY     0  -9  65 W25G35    30.48R WCI -24
GREAT FALLS MT MOSUNNY   -1  -8  72 CALM      30.47R
CHEYENNE WY    CLOUDY     2  -6  69 N9        30.12R HAZE    WCI -13
SCOTTSBLUFF NE LGT SNOW  10   1  67 NW16      30.30R WCI  -7
OMAHA NE       CLOUDY    19   7  59 W13       30.33S WCI   6
DES MOINES IA  CLOUDY    22  10  60 NW17      30.24S WCI   8
DAVENPORT IA   SUNNY     25  17  72 W21       30.16F WCI  11
CHICAGO IL     PTSUNNY   26  17  68 W13G20    30.09F WCI  15
EAU CLAIRE WI  LGT SNOW  18  11  74 W23G29    29.98R WCI   0
LA CROSSE WI   MOSUNNY   22  12  65 SW13      30.08S WCI  10
$$

  *****  SOME NATIONAL WEATHER *****

CITY           SKY/WX    TMP DP  RH WIND       PRES   REMARKS
LA GUARDIA NY  CLOUDY    44  39  82 CALM      29.97F
RALEIGH NC     MOSUNNY   56  41  57 CALM      30.05F
ATLANTA GA     SUNNY     55  42  61 NW6       30.06F
NEW ORLEANS LA CLOUDY    61  56  83 CALM      30.12F
OKLAHOMA CITY  CLOUDY    38  22  52 NE7       30.16R
ALBUQUERQUE NM CLOUDY    43  25  49 N8        30.06R
SALT LAKE CITY PTSUNNY   24  14  65 N8        30.26R WCI  15
LOS ANGELES CA CLOUDY    57  47  69 E6        30.10R
BOISE ID       CLOUDY    18  15  88 SE5       30.36R WCI  11
SEATTLE WA     PTCLDY    30  24  78 N12       30.41S WCI  20
$$

*** WEATHER ACROSS MANITOBA...SASKATCHEWAN AND ONTARIO ***
                ***ONTARIO***

CITY           SKY/WX    TMP DP  RH WIND       PRES   REMARKS
GERALDTON      LGT SNOW  23  21  93 SW5       29.48S WCI  17
THUNDER BAY    FLURRIES  27  21  80 W14       29.60S WCI  15
SIOUX LOOKOUT  LGT SNOW  21  18  86 N8G17     29.59R DRFTSNOWWCI  12
TORONTO        PTSUNNY   36  25  64 W17G26    29.93F
BIG TROUT LK   FLURRIES  23  19  86 N14G22    29.79R WCI  11
PICKLE LAKE    LGT SNOW  19  16  86 N8G17     29.57R DRFTSNOWWCI   9
DRYDEN         LGT SNOW  23  19  86 N9G20     29.61R WCI  13
KENORA         LGT SNOW  21  18  86 N10G18    29.69R WCI  10
$$
                *** MANITOBA***

CITY           SKY/WX    TMP DP  RH WIND       PRES   REMARKS
BRANDON        FLURRIES  12   7  79 NW29G37   30.08R WCI  -9
DAUPHIN        LGT SNOW  18  14  86 NW16G24   30.14R WCI   3
ISLAND LAKE    FLURRIES  18  16  93 N10G21    29.99R WCI   6
PILOT MOUND      N/A     12  10  92 NW30G41     N/A  WCI  -9
THE PAS        PTSUNNY   12   7  79 N16G23    30.29R WCI  -4
THOMPSON       LGT SNOW  10   7  85 N15       30.24R DRFTSNOWWCI  -6
WINNIPEG       LGT SNOW  23  19  86 N24       29.90R VSB 1   WCI   7
LYNN LAKE      FLURRIES   3   0  85 N13       30.36R WCI -14
CHURCHILL      SNOW       7   5  92 NW28G36   30.29S VSB 1/4 WCI -16
GILLAM         LGT SNOW  10   7  85 N24G32    30.16R DRFTSNOWWCI -10
$$
                ***SASKATCHEWAN***

CITY           SKY/WX    TMP DP  RH WIND       PRES   REMARKS
ESTEVAN        LGT SNOW   1  -4  78 NW30G37   30.31R VSB 1   WCI -24
KINDERSLEY     PTSUNNY   -4 -11  71 NW15G23   30.49R WCI -25
LLOYDMINSTER   PTCLDY    -6 -11  77 NW15      30.52R WCI -27
PRINCE ALBERT  FLURRIES   1  -4  78 NW9       30.44R WCI -14
REGINA         CLOUDY     0  -6  78 NW22G28   30.38R BLWGSNOWWCI -23
YORKTON        LGT SNOW   9   5  85 NW17G26   30.24R WC1F1C2F2C3F3C4F4C5F5C6F6C7F7C8F8C9F9CaFaCbFbCcFcCdFdCe!


USA.gov is the U.S. government's official web portal to all federal, state and local government web resources and services.